TimeEST,TemperatureF,Dew PointF,Humidity,Sea Level PressureIn,VisibilityMPH,Wind Direction,Wind SpeedMPH,Gust SpeedMPH,PrecipitationIn,Events,Conditions,WindDirDegrees,DateUTC
12:15 AM,62.6,50.9,66,30.02,10.0,SSW,10.4,-,N/A,,Mostly Cloudy,200,2012-12-04 05:15:00
12:35 AM,63.5,50.0,61,30.01,10.0,SSW,13.8,-,N/A,,Overcast,210,2012-12-04 05:35:00
1:15 AM,64.4,48.4,56,30.00,10.0,SSW,17.3,24.2,N/A,,Overcast,210,2012-12-04 06:15:00
1:35 AM,64.4,48.2,56,30.01,10.0,SSW,19.6,25.3,N/A,,Overcast,210,2012-12-04 06:35:00
1:55 AM,63.7,48.4,57,30.00,10.0,SSW,15.0,24.2,N/A,,Overcast,210,2012-12-04 06:55:00
2:15 AM,63.3,48.6,59,30.00,10.0,SSW,17.3,25.3,N/A,,Mostly Cloudy,210,2012-12-04 07:15:00
2:35 AM,63.0,48.7,60,30.00,10.0,SSW,16.1,21.9,N/A,,Scattered Clouds,210,2012-12-04 07:35:00
2:55 AM,62.4,49.1,62,30.00,10.0,SSW,13.8,-,N/A,,Clear,210,2012-12-04 07:55:00
3:15 AM,62.4,49.1,62,30.00,10.0,SSW,16.1,21.9,N/A,,Scattered Clouds,200,2012-12-04 08:15:00
3:35 AM,61.7,49.3,64,29.99,10.0,SSW,15.0,21.9,N/A,,Scattered Clouds,200,2012-12-04 08:35:00
3:55 AM,61.9,49.5,64,29.99,10.0,SSW,15.0,21.9,N/A,,Mostly Cloudy,200,2012-12-04 08:55:00
4:15 AM,61.9,50.0,65,29.99,10.0,SSW,16.1,19.6,N/A,,Mostly Cloudy,210,2012-12-04 09:15:00
4:35 AM,61.7,50.2,66,29.99,10.0,SSW,16.1,21.9,N/A,,Overcast,200,2012-12-04 09:35:00
4:55 AM,61.9,50.4,66,29.99,10.0,SSW,15.0,-,N/A,,Overcast,210,2012-12-04 09:55:00
5:15 AM,61.7,50.9,68,29.99,10.0,SSW,16.1,-,N/A,,Mostly Cloudy,200,2012-12-04 10:15:00
5:35 AM,61.9,51.1,68,29.99,10.0,SSW,15.0,-,N/A,,Overcast,210,2012-12-04 10:35:00
5:55 AM,61.9,51.6,69,29.99,10.0,SSW,16.1,-,N/A,,Overcast,210,2012-12-04 10:55:00
6:15 AM,62.2,52.0,69,30.00,10.0,SW,13.8,21.9,N/A,,Overcast,220,2012-12-04 11:15:00
6:35 AM,62.1,52.2,70,30.00,10.0,SW,15.0,20.7,N/A,,Overcast,220,2012-12-04 11:35:00
6:55 AM,62.1,52.7,71,30.00,10.0,SW,17.3,-,N/A,,Overcast,220,2012-12-04 11:55:00
7:15 AM,62.1,52.9,72,30.01,10.0,SW,12.7,-,N/A,,Overcast,230,2012-12-04 12:15:00
7:35 AM,61.9,52.9,72,30.01,10.0,SW,12.7,18.4,N/A,,Overcast,220,2012-12-04 12:35:00
7:55 AM,61.7,53.1,73,30.02,10.0,SW,13.8,-,N/A,,Overcast,230,2012-12-04 12:55:00
8:15 AM,60.8,53.6,77,30.02,10.0,WSW,19.6,26.5,N/A,,Overcast,240,2012-12-04 13:15:00
8:55 AM,59.0,54.5,85,30.03,7.0,WSW,11.5,19.6,N/A,,Overcast,240,2012-12-04 13:55:00
9:15 AM,59.0,54.3,84,30.04,7.0,WSW,9.2,-,N/A,Rain,Light Rain,250,2012-12-04 14:15:00
9:35 AM,52.5,48.2,85,30.05,2.0,NNW,11.5,-,N/A,Rain,Rain,340,2012-12-04 14:35:00
9:55 AM,50.9,47.3,87,30.06,4.0,NNW,9.2,-,N/A,,Light Drizzle,340,2012-12-04 14:55:00
10:15 AM,50.2,46.8,88,30.07,4.0,North,9.2,-,N/A,,Overcast,350,2012-12-04 15:15:00
10:35 AM,50.0,46.8,89,30.07,3.0,North,9.2,-,0.01,Rain,Light Rain,360,2012-12-04 15:35:00
10:55 AM,49.1,45.7,88,30.08,5.0,North,16.1,20.7,0.02,Rain,Rain,350,2012-12-04 15:55:00
11:15 AM,49.1,45.5,87,30.08,5.0,North,9.2,-,0.03,Rain,Light Rain,360,2012-12-04 16:15:00
11:35 AM,47.7,44.1,87,30.09,7.0,North,11.5,19.6,0.05,Rain,Rain,350,2012-12-04 16:35:00
11:55 AM,46.6,42.6,86,30.08,10.0,North,15.0,20.7,0.07,Rain,Light Rain,360,2012-12-04 16:55:00
12:15 PM,46.4,41.9,84,30.09,7.0,North,9.2,-,0.03,Rain,Rain,360,2012-12-04 17:15:00
12:35 PM,45.9,41.5,85,30.09,7.0,NNW,11.5,-,0.05,Rain,Light Rain,330,2012-12-04 17:35:00
12:55 PM,45.7,41.2,84,30.08,10.0,North,8.1,-,0.06,Rain,Light Rain,360,2012-12-04 17:55:00
1:15 PM,46.0,41.0,83,30.09,10.0,North,5.8,-,N/A,Rain,Light Rain,350,2012-12-04 18:15:00
1:35 PM,46.4,41.5,83,30.09,10.0,NNW,6.9,-,N/A,,Light Drizzle,340,2012-12-04 18:35:00
1:55 PM,46.6,41.2,81,30.09,10.0,North,9.2,-,N/A,,Overcast,360,2012-12-04 18:55:00
2:15 PM,46.9,41.2,80,30.09,10.0,North,5.8,-,N/A,,Overcast,360,2012-12-04 19:15:00
2:35 PM,47.3,41.4,80,30.08,10.0,North,5.8,-,N/A,,Overcast,360,2012-12-04 19:35:00
2:55 PM,47.7,41.2,78,30.09,10.0,North,5.8,-,N/A,,Overcast,350,2012-12-04 19:55:00
3:15 PM,47.8,40.6,76,30.09,10.0,North,4.6,-,N/A,,Overcast,350,2012-12-04 20:15:00
3:35 PM,48.0,41.4,78,30.10,10.0,NW,4.6,-,N/A,,Overcast,320,2012-12-04 20:35:00
3:55 PM,48.9,41.0,74,30.11,10.0,NNW,4.6,-,N/A,,Overcast,340,2012-12-04 20:55:00
4:15 PM,49.1,41.5,75,30.12,10.0,NNW,8.1,-,N/A,,Overcast,330,2012-12-04 21:15:00
4:35 PM,49.1,41.2,74,30.13,10.0,NW,5.8,-,N/A,,Overcast,310,2012-12-04 21:35:00
4:55 PM,48.6,41.2,76,30.14,10.0,WNW,3.5,-,N/A,,Mostly Cloudy,290,2012-12-04 21:55:00
5:15 PM,47.7,41.7,80,30.15,10.0,WNW,3.5,-,N/A,,Mostly Cloudy,300,2012-12-04 22:15:00
5:55 PM,45.7,40.1,81,30.16,10.0,WNW,3.5,-,N/A,,Scattered Clouds,290,2012-12-04 22:55:00
6:15 PM,44.8,39.7,82,30.17,10.0,West,4.6,-,N/A,,Clear,270,2012-12-04 23:15:00
6:35 PM,44.6,39.9,84,30.17,10.0,West,4.6,-,N/A,,Clear,270,2012-12-04 23:35:00
6:55 PM,44.1,39.4,84,30.18,10.0,West,3.5,-,N/A,,Clear,280,2012-12-04 23:55:00
7:15 PM,43.9,39.4,84,30.19,10.0,West,3.5,-,N/A,,Clear,280,2012-12-05 00:15:00
7:35 PM,43.5,39.2,85,30.18,10.0,West,4.6,-,N/A,,Clear,270,2012-12-05 00:35:00
7:55 PM,44.6,39.6,82,30.18,10.0,West,4.6,-,N/A,,Clear,270,2012-12-05 00:55:00
8:15 PM,43.7,38.3,81,30.19,10.0,West,5.8,-,N/A,,Clear,270,2012-12-05 01:15:00
8:35 PM,43.7,37.9,80,30.19,10.0,West,3.5,-,N/A,,Clear,260,2012-12-05 01:35:00
8:55 PM,41.9,36.5,81,30.19,10.0,West,4.6,-,N/A,,Clear,260,2012-12-05 01:55:00
9:15 PM,41.5,36.3,82,30.19,10.0,West,3.5,-,N/A,,Clear,270,2012-12-05 02:15:00
9:35 PM,40.3,35.2,82,30.21,10.0,Calm,Calm,-,N/A,,Clear,0,2012-12-05 02:35:00
9:55 PM,38.7,34.7,86,30.21,10.0,Calm,Calm,-,N/A,,Clear,0,2012-12-05 02:55:00
10:15 PM,40.5,36.0,84,30.22,10.0,West,3.5,-,N/A,,Clear,260,2012-12-05 03:15:00
10:35 PM,40.1,35.6,84,30.22,10.0,West,4.6,-,N/A,,Clear,270,2012-12-05 03:35:00
10:55 PM,40.1,35.2,83,30.23,10.0,West,6.9,-,N/A,,Clear,270,2012-12-05 03:55:00
11:15 PM,41.4,35.1,78,30.22,10.0,West,8.1,-,N/A,,Clear,280,2012-12-05 04:15:00
11:35 PM,41.9,34.9,76,30.22,10.0,West,8.1,-,N/A,,Clear,270,2012-12-05 04:35:00
11:55 PM,42.1,34.5,75,30.23,10.0,West,8.1,-,N/A,,Clear,280,2012-12-05 04:55:00